Weather History for KAKH - November, 2013

Change the Weather History Date:

Sunday, November 17, 2013

  Actual Average (KCLT) Record (KCLT)
Temperature  
Mean Temperature 60 °F 50 °F  
Max Temperature 68 °F 62 °F 84 °F (1958)
Min Temperature 51 °F 39 °F 20 °F (1883)
Degree Days  
Heating Degree Days 6 15  
Month to date heating degree days 210  
Since 1 July heating degree days 416  
Cooling Degree Days 0 0  
Month to date cooling degree days 0  
Year to date cooling degree days 1513  
Growing Degree Days 10 (Base 50)    
Moisture  
Dew Point 57 °F    
Average Humidity 94    
Maximum Humidity 100    
Minimum Humidity 68    
Precipitation  
Precipitation 0.13 in 0.11 in 1.90 in (1968)
Month to date precipitation 1.72  
Year to date precipitation 36.96  
Snow  
Snow 0.00 in 0.00 in 0.00 in ()
Month to date snowfall 0.0  
Since 1 July snowfall 0.0  
Since 1 September snowfall 0.0  
Snow Depth -    
Sea Level Pressure  
Sea Level Pressure 30.08 in    
Wind  
Wind Speed 2 mph (South)    
Max Wind Speed 9 mph    
Max Gust Speed 18 mph    
Visibility 4 miles    
Events Fog , Rain    
T = Trace of Precipitation, MM = Missing Value Source: NWS Daily Summary

Daily Weather History Graph

Daily Weather History Graph

Search for Another Location

Airport or City:

Trip Planner

Search our weather history database for the weather conditions in past years. The results will help you decide how hot, cold, wet, or windy it might be!

Date:

Astronomy

Nov. 17, 2013 Rise Set
Actual Time 7:01 AM EST 5:17 PM EST
Civil Twilight 6:34 AM EST 5:44 PM EST
Nautical Twilight 6:03 AM EST 6:15 PM EST
Astronomical Twilight 5:33 AM EST 6:45 PM EST
Moon 5:33 PM EST (11/17) 6:54 AM EST (11/17)
Length of Visible Light 11h 09m
Length of Day
10h 15m
Full, 100% of the Moon is Illuminated
Nov 17
Full
Nov 25
Last Quarter
Dec 2
New
Dec 9
First Quarter
Dec 17
Full

Hourly Weather History & Observations

Time (EST) Temp. Dew Point Humidity Pressure Visibility Wind Dir Wind Speed Gust Speed Precip Events Conditions
12:11 AM 51.8 °F 51.8 °F 100% 30.21 in 1.2 mi Calm Calm - N/A   Clear
12:38 AM 51.8 °F 51.8 °F 100% 30.20 in 1.0 mi ENE 4.6 mph - N/A   Mist
12:46 AM 51.8 °F 51.8 °F 100% 30.20 in 1.0 mi ENE 4.6 mph - N/A   Clear
12:54 AM 52.0 °F 52.0 °F 100% 30.19 in 2.5 mi ENE 4.6 mph - N/A   Partly Cloudy
1:11 AM 53.6 °F 53.6 °F 100% 30.20 in 3.0 mi Calm Calm - N/A   Mostly Cloudy
1:48 AM 53.6 °F 51.8 °F 94% 30.18 in 1.8 mi Calm Calm - N/A   Partly Cloudy
1:54 AM 53.1 °F 52.0 °F 96% 30.18 in 1.5 mi Calm Calm - N/A   Clear
2:00 AM 53.6 °F 53.6 °F 100% 30.19 in 2.5 mi Calm Calm - N/A   Partly Cloudy
2:07 AM 53.6 °F 53.6 °F 100% 30.18 in 3.0 mi Calm Calm - N/A   Scattered Clouds
2:09 AM 53.6 °F 51.8 °F 94% 30.18 in 2.5 mi Calm Calm - N/A   Mostly Cloudy
2:24 AM 53.6 °F 53.6 °F 100% 30.18 in 4.0 mi Calm Calm - N/A   Overcast
2:54 AM 55.0 °F 54.0 °F 96% 30.17 in 3.0 mi North 3.5 mph - N/A   Overcast
3:54 AM 55.0 °F 54.0 °F 96% 30.15 in 3.0 mi Calm Calm - N/A   Overcast
4:45 AM 55.4 °F 53.6 °F 94% 30.14 in 3.0 mi Calm Calm - N/A   Overcast
4:54 AM 55.9 °F 54.0 °F 93% 30.14 in 3.0 mi Calm Calm - N/A   Overcast
5:20 AM 55.4 °F 53.6 °F 94% 30.13 in 2.5 mi Calm Calm - N/A   Overcast
5:34 AM 55.4 °F 55.4 °F 100% 30.13 in 0.8 mi Calm Calm - N/A   Overcast
5:47 AM 55.4 °F 55.4 °F 100% 30.13 in 0.2 mi Calm Calm - N/A Fog Fog
5:54 AM 55.0 °F 55.0 °F 100% 30.14 in 0.2 mi Calm Calm - N/A Fog Fog
6:54 AM 55.0 °F 55.0 °F 100% 30.14 in 0.2 mi Calm Calm - N/A Fog Fog
7:54 AM 55.0 °F 55.0 °F 100% 30.16 in 0.2 mi Calm Calm - N/A Fog Fog
8:54 AM 55.9 °F 55.9 °F 100% 30.16 in 0.2 mi Calm Calm - N/A Fog Fog
9:54 AM 57.0 °F 57.0 °F 100% 30.15 in 0.2 mi Calm Calm - N/A Fog Fog
10:02 AM 57.2 °F 57.2 °F 100% 30.15 in 0.5 mi Calm Calm - N/A Fog Fog
10:10 AM 57.2 °F 57.2 °F 100% 30.15 in 2.0 mi Calm Calm - N/A   Overcast
10:24 AM 57.2 °F 57.2 °F 100% 30.16 in 3.0 mi Calm Calm - N/A   Overcast
10:54 AM 59.0 °F 57.0 °F 93% 30.15 in 6.0 mi Calm Calm - N/A   Overcast
11:08 AM 59.0 °F 57.2 °F 94% 30.15 in 7.0 mi Calm Calm - 0.03 in   Overcast
11:21 AM 60.8 °F 57.2 °F 88% 30.14 in 7.0 mi SE 4.6 mph - N/A   Overcast
11:54 AM 63.0 °F 57.9 °F 84% 30.11 in 7.0 mi SSW 4.6 mph - N/A   Overcast
12:03 PM 64.4 °F 57.2 °F 77% 30.10 in 8.0 mi South 4.6 mph - N/A   Overcast
12:54 PM 66.9 °F 57.9 °F 73% 30.07 in 10.0 mi SSW 5.8 mph - N/A   Overcast
1:54 PM 68.0 °F 57.0 °F 68% 30.04 in 10.0 mi Variable 6.9 mph - N/A   Overcast
2:54 PM 68.0 °F 57.9 °F 70% 30.03 in 10.0 mi Variable 3.5 mph - N/A   Overcast
3:54 PM 66.0 °F 59.0 °F 78% 30.01 in 10.0 mi Calm Calm - 0.00 in Rain Light Rain
4:20 PM 66.2 °F 59.0 °F 78% 30.00 in 10.0 mi Calm Calm - 0.00 in   Mostly Cloudy
4:54 PM 66.0 °F 59.0 °F 78% 30.00 in 10.0 mi Variable 3.5 mph - 0.00 in   Overcast
5:11 PM 62.6 °F 60.8 °F 94% 30.00 in 2.5 mi South 3.5 mph - 0.03 in Rain Rain
5:25 PM 62.6 °F 60.8 °F 94% 29.99 in 4.0 mi South 3.5 mph - 0.05 in Rain Light Rain
5:54 PM 63.0 °F 61.0 °F 93% 29.99 in 4.0 mi Calm Calm - 0.07 in Rain Light Rain
6:08 PM 62.6 °F 60.8 °F 94% 29.99 in 3.0 mi Calm Calm - 0.00 in Rain Light Rain
6:54 PM 62.1 °F 61.0 °F 96% 29.97 in 3.0 mi South 4.6 mph - 0.01 in Rain Light Rain
7:01 PM 62.6 °F 62.6 °F 100% 29.98 in 3.0 mi South 3.5 mph - 0.01 in Rain Light Rain
7:12 PM 62.6 °F 60.8 °F 94% 29.97 in 3.0 mi SSE 4.6 mph - 0.01 in Rain Light Rain
7:29 PM 62.6 °F 62.6 °F 100% 29.96 in 7.0 mi SSE 5.8 mph - 0.01 in Rain Light Rain
7:46 PM 62.6 °F 62.6 °F 100% 29.96 in 7.0 mi South 3.5 mph - 0.01 in   Overcast
7:54 PM 63.0 °F 62.1 °F 97% 29.94 in 7.0 mi South 4.6 mph - 0.01 in   Overcast
8:07 PM 62.6 °F 62.6 °F 100% 29.96 in 5.0 mi South 5.8 mph - 0.01 in Rain Light Rain
8:40 PM 62.6 °F 62.6 °F 100% 29.96 in 2.5 mi South 4.6 mph - 0.01 in Rain Light Rain
8:47 PM 62.6 °F 62.6 °F 100% 29.95 in 3.0 mi South 5.8 mph - 0.02 in Rain Light Rain
8:54 PM 63.0 °F 63.0 °F 100% 29.94 in 3.0 mi South 9.2 mph - 0.03 in Rain Rain
9:54 PM 64.0 °F 64.0 °F 100% 29.93 in 6.0 mi SSW 9.2 mph - 0.01 in   Overcast
10:54 PM 66.0 °F 64.9 °F 96% 29.92 in 3.0 mi SSW 8.1 mph 18.4 mph N/A   Overcast
11:54 PM 66.0 °F 64.9 °F 96% 29.90 in 5.0 mi SSW 9.2 mph 18.4 mph 0.00 in Rain Light Rain